Location: Biharia
(46.4333°N, 22.8000°E)
Time: 01:20:26
(UTC+00:00)

Cosmos 405 Rocket - Pass Details

Date: 16 October 2021
Orbit: 488 x 551 km, 81.3° (Epoch: 02 December)

Event Time Altitude Azimuth Distance (km) Brightness Sun altitude
Rises 16:55:31 0° 353° (N) 2,667 6.4 -13.7°
Reaches altitude 10° 16:57:42 10° 358° (N) 1,784 5.5 -14.1°
Maximum altitude 17:01:33 54° 77° (ENE) 657 2.8 -14.7°
Drops below altitude 10° 17:05:27 10° 155° (SSE) 1,803 5.2 -15.4°
Enters shadow 17:06:35 - 158° (SSE) 2,262 5.7 -15.6°
